Terug naar catalogus

COSMOS 1554

GLONASS

ActiefNavigatieMEO
NORAD 14977·PAYLOAD·🇷🇺 Russia

Gelanceerd May 19, 1984 vanaf Baikonur Cosmodrome

Loading…

Volgende Passages (komende 24 uur)

TLE

VersSource: Space-Track

Epoch: Sep 13, 2026, 05:54 UTC

1 14977U 84047A   26256.24598661 -.00000066  00000-0  00000+0 0  9995
2 14977  66.3264 325.2610 0018984 214.5082 140.3950  2.13100727105751

Volg COSMOS 1554 in realtime met AllMySat

Download on the App Store